Other Public Products
Issued by NWS Grand Forks, ND

Home | Current Version | Previous Version | Text Only | Print | Product List | Glossary Off
Versions: 1 2 3 4 5 6 7 8 9 10 11 12 13 14 15 16 17 18 19 20 21 22 23 24 25 26 27 28 29 30 31 32 33 34 35 36 37 38 39 40 41 42 43 44 45 46 47 48 49 50

000
FPUS83 KFGF 270331
OPUFGF
PRAIRIE TO PINES WEATHER ROUNDUP
NATIONAL WEATHER SERVICE EASTERN NORTH DAKOTA/GRAND FORKS ND
900 PM CST SUN FEB 26 2017

 **SATELLITE DATA USED TO AUGMENT SKY COVER AT AUTOMATED STATIONS**
 *****  WEATHER ACROSS EASTERN NORTH DAKOTA  *****

CITY           SKY/WX    TMP DP  RH WIND       PRES   REMARKS
GRAND FORKS    FAIR       9   1  70 SW7       29.89S WCI  -2
GRAND FORKS AF FAIR       6   1  83 SW6       29.89S WCI  -5
GRAND CITY NWS NOT AVBL
BUXTON         NOT AVBL
DEVILS LAKE    FAIR       4   1  88 W6        29.85S WCI  -7
FARGO          MOCLDY    19  11  70 SE3       29.90R
WAHPETON ARPT    N/A     16  10  79 S5        29.91R WCI   9
$$

 *****  WEATHER ACROSS CENTRAL AND WESTERN NORTH DAKOTA  *****

CITY           SKY/WX    TMP DP  RH WIND       PRES   REMARKS
JAMESTOWN      CLOUDY    21  15  78 CALM      29.84R
BISMARCK       FAIR      18  13  80 NE5       29.85S WCI  11
MINOT          CLOUDY    17  11  77 SW9       29.80S WCI   6
MINOT AFB      FAIR      15  10  82 W10       29.80R WCI   2
GARRISON         N/A      9   5  84 CALM      29.82R
WILLISTON      CLOUDY    22  17  81 SW5       29.81S WCI  16
DICKINSON      FAIR      13   8  81 CALM      29.77S
HETTINGER      FAIR      19  16  88 N3        29.80R
$$

 *****  OTHER OBSERVATIONS NORTHEAST NORTH DAKOTA  *****

CITY           SKY/WX    TMP DP  RH WIND       PRES   REMARKS
WALHALLA       NOT AVBL
LANGDON        NOT AVBL
CAVALIER         N/A     14   7  73 SW8       29.86S WCI   3
GRAFTON        FAIR       9   5  85 SW9       29.90S WCI  -5
CANDO          NOT AVBL
FORT TOTTEN      N/A      7   4  87 CALM      29.95S
ROLLA          FAIR       9   7  92 SW14      29.79R WCI  -8
RUGBY            N/A      5   1  85 S9        29.82S WCI  -9
 ***** THE ABOVE OBSERVATIONS ARE NON NWS ARE NOT QUALITY
        CONTROLLED AND MAY MIS-REPORT RAIN FOR SNOW...
$$

 *****  OTHER OBSERVATIONS SOUTHEAST NORTH DAKOTA *****

CITY           SKY/WX    TMP DP  RH WIND       PRES   REMARKS
COOPERSTOWN    FOG        1   0  92 CALM      29.87R VSB 3/4
VALLEY CITY    CLOUDY    19  19 100 SW7       29.88R WCI  10
OAKES          NOT AVBL
GWINNER        FAIR      23  19  86 E9        29.87S WCI  13
SHEYENNE NWR     N/A     22  12  65 SE2       29.95S
BUFFALO        NOT AVBL
WYNDMERE         N/A     16  12  86 SE3         N/A
 ***** THE ABOVE OBSERVATIONS ARE NON NWS ARE NOT QUALITY
       CONTROLLED AND MAY MIS-REPORT RAIN FOR SNOW...
$$

  *****  WEATHER ACROSS NORTHERN MINNESOTA  *****

CITY           SKY/WX    TMP DP  RH WIND       PRES   REMARKS
FLAG ISLAND    CLOUDY    14   7  73 SW14      29.83R WCI  -1
WARROAD        FAIR      10   7  85 SW8       29.86R WCI  -1
ROSEAU         FAIR      10   3  72 S8        29.85S WCI  -1
HALLOCK          N/A     14  10  85 SW7       29.87S WCI   4
THF RVR FALLS    N/A      8   5  87 S5        29.89S WCI   0
HALSTAD          N/A     17  10  76 S2          N/A
FOSSTON        FAIR       5   1  85 S3        29.88S
BAUDETTE       FAIR      11   2  67 SW8       29.84R WCI  -1
WASKISH        FAIR      10   5  79 SW7       29.87S WCI   0
CROOKSTON      FAIR      10   7  85 CALM      29.91S
$$
  *****  WEATHER ACROSS CENTRAL AND WEST MINNESOTA  *****

CITY           SKY/WX    TMP DP  RH WIND       PRES   REMARKS
BEMIDJI        FAIR      10   4  75 CALM      29.87R
PARK RAPIDS    FAIR      14   4  64 CALM      29.86S
WADENA         MOCLDY     7   3  85 CALM      29.88R
DETROIT LAKES  FAIR      16  12  86 CALM      29.89R
MOORHEAD       CLOUDY    18  10  73 S5        29.91R WCI  11
FERGUS FALLS   CLOUDY    18   9  68 W3        29.94R
ELBOW LAKE     CLOUDY    15   9  80 SE5       29.89S WCI   7
MORRIS MN      FAIR      21  18  86 S6        29.90R WCI  14
STAPLES        FAIR       9   3  78 CALM      29.89R
WHEATON        CLOUDY    19  14  79 E6        29.93R WCI  11
$$
  *****  WEATHER ELSEWHERE ACROSS MINNESOTA  *****

CITY           SKY/WX    TMP DP  RH WIND       PRES   REMARKS
DULUTH         FAIR      10   0  63 W3        29.87R
INTRNTL FALLS  FAIR      13   2  61 W8        29.85R WCI   2
ELY            FAIR       1  -4  78 CALM      29.86R
CLOQUET        FAIR       7   0  72 CALM      29.89R
BRAINERD       FAIR      11   4  73 SW3       29.90S
HIBBING        FAIR       2  -3  80 CALM      29.86R
ALEXANDRIA     CLOUDY    20  11  68 E3        29.87S
SAINT CLOUD    FAIR      23  15  71 CALM      29.91R
MINNEAPOLIS    CLOUDY    30  12  47 CALM      29.95R
$$

  *****  WEATHER ACROSS SOUTH DAKOTA  *****

CITY           SKY/WX    TMP DP  RH WIND       PRES   REMARKS
SIOUX FALLS    FAIR      30  23  75 SW9       29.90R WCI  22
BROOKINGS      NOT AVBL
WATERTOWN      CLOUDY    26  21  81 SE9       29.82S WCI  17
HURON          MOCLDY    32  20  61 SW10      29.83R WCI  24
SISSETON         N/A     22  19  89 SE7       29.88R WCI  13
ABERDEEN       FAIR      25  20  81 NE3       29.83S
MITCHELL       FAIR      32  23  69 SW10      29.87S WCI  24
PIERRE         MOCLDY    32  17  54 SW6       29.80R
MOBRIDGE       MOCLDY    31  25  78 CALM      29.77R
RAPID CITY     FAIR      23  16  74 CALM      29.76S
$$

  *****  SOME WEATHER IN NEARBY STATES *****

CITY           SKY/WX    TMP DP  RH WIND       PRES   REMARKS
GLASGOW MT     FAIR      17  11  77 NE5       29.79F WCI  10
GREAT FALLS MT LGT SNOW  17  14  88 N9        29.70S VSB 3/4 WCI   6
CHEYENNE WY    FAIR      13   5  70 W7        29.76R WCI   3
SCOTTSBLUFF NE FAIR      15   6  67 E3        29.82S
OMAHA NE       FAIR      29  23  78 NW7       29.99R WCI  22
DES MOINES IA  FAIR      34  20  56 CALM      30.02R
DAVENPORT IA   FAIR      33  24  69 S7        30.03R
CHICAGO IL     FAIR      43  29  57 SW13      30.01R
EAU CLAIRE WI  FAIR      20  16  84 CALM      29.94R
LA CROSSE WI   FAIR      31  23  72 SW8       29.99R WCI  23
$$

  *****  SOME NATIONAL WEATHER *****

CITY           SKY/WX    TMP DP  RH WIND       PRES   REMARKS
LA GUARDIA NY  FAIR      40  17  39 W14       30.24R
RALEIGH NC     FAIR      41  23  48 CALM      30.30R
ATLANTA GA     FAIR      53  24  32 CALM      30.23R
NEW ORLEANS LA MOCLDY    62  55  77 E9        30.10S
OKLAHOMA CITY  MOCLDY    50  34  54 N9        29.94R
ALBUQUERQUE NM MOCLDY    41  23  48 SE5       29.92S
SALT LAKE CITY MOCLDY    36  20  52 SE3       29.68F
LOS ANGELES CA MOCLDY    53  44  71 S7        29.96R
BOISE ID       FAIR      32  27  81 SE9       29.68F WCI  24
SEATTLE WA     MOCLDY    39  35  86 N9        29.73R
$$

*** WEATHER ACROSS MANITOBA...SASKATCHEWAN AND ONTARIO ***
                ***ONTARIO***

CITY           SKY/WX    TMP DP  RH WIND       PRES   REMARKS
GERALDTON      PTCLDY     9  -2  61 W7        29.76R WCI  -3
THUNDER BAY    CLEAR      7   1  78 CALM      29.89R
SIOUX LOOKOUT  CLEAR      1  -2  85 S5        29.78R WCI  -8
TORONTO        MOCLDY    36  21  55 SW17G24   30.01S
BIG TROUT LK   CLEAR     -4  -8  84 W7        29.72R WCI -18
PICKLE LAKE    NOT AVBL
DRYDEN         PTCLDY     9   1  72 S6        29.77S WCI  -1
KENORA         MOCLDY    12   3  67 SW8       29.78R WCI   1
$$
                *** MANITOBA***

CITY           SKY/WX    TMP DP  RH WIND       PRES   REMARKS
BRANDON        FLURRIES  10   7  85 SW8       29.79R WCI  -1
DAUPHIN        CLOUDY    16   9  73 W12G17    29.77R WCI   3
ISLAND LAKE    PTCLDY    -4  -9  77 W2        29.75R
PILOT MOUND      N/A     10   5  79 SW12        N/A  WCI  -4
THE PAS        MOCLDY     3  -6  66 NW7       29.82R WCI  -9
THOMPSON       CRYSTALS -18 -24  76 CALM      29.79S
WINNIPEG       MOCLDY    16  10  79 SW12      29.81R WCI   3
LYNN LAKE      CLEAR    -18 -24  76 NW6       29.77F WCI -33
CHURCHILL      CRYSTALS -22 -27  76 NW14      29.79R WCI -47
GILLAM         CLEAR    -15 -20  76 W7        29.77R WCI -31
$$
                ***SASKATCHEWAN***

CITY           SKY/WX    TMP DP  RH WIND       PRES   REMARKS
ESTEVAN        FLURRIES  12  10  92 SW7       29.77S WCI   2
KINDERSLEY     CLEAR      3  -4  72 N7        29.83S WCI  -9
LLOYDMINSTER   PTCLDY    -6 -11  77 W6        29.82F WCI -18
PRINCE ALBERT  CLEAR      0  -9  65 N8        29.84S WCI -15
REGINA         PTCLDY    10   3  72 NW16G26   29.79R WCI  -7
YORKTON        LGT SNOW  12   9  85 N8        29.74R WC


USA.gov is the U.S. government's official web portal to all federal, state and local government web resources and services.